[[{"header":{"parameterUnit":"m.s-1","parameterCategory":1,"la1":30.2991,"la2":30.254,"lo1":-89.0895,"lo2":-89.0444,"dy":0.0017,"dx":0.0017,"nx":28,"ny":28,"refTime":"2023-08-15T03:00:00:Z","depth":0,"parameterNumber":2,"parameterNumberName":"U-component_of_WINDS"},"data":[0,0,0,0,0,0,0,0,0,0,0,0,0,0,0,0,0,0,0,0,0,0,0,0,0,0,0,0,0,0,0,0,0,0,0,0,0,0,0,0,0,0,0,0,0,0,0,0,0,0,0,0,0,0,0,0,0,0,-0.0223,-0.0223,0,-0.0159,-0.0158,-0.0157,-0.0058,-0.0056,-0.0054,-0.0053,0.0012,0.0012,0.0012,0,0,0,0,0,0,0,0,0,0,0,0,0,-0.0263,-0.0262,-0.0223,-0.0223,-0.0222,-0.0159,-0.0158,-0.0157,-0.0058,-0.0056,-0.0054,-0.0052,0.0012,0.0012,0.0012,0,0,0,0,0,0,0,0,0,0,0,0,0,-0.0227,-0.0262,-0.0223,-0.0165,-0.0159,-0.0159,-0.0158,-0.0157,-0.0059,-0.0056,-0.0053,-0.0051,0.0012,0.0012,0.0012,-0.004,0,0,0.0013,0.0013,0,0,0,0,0,0,0,0,-0.0229,-0.0225,-0.0174,-0.0169,-0.0162,-0.0113,-0.0148,-0.0118,-0.0059,-0.0097,-0.0053,-0.005,-0.0032,-0.0028,-0.0022,-0.0037,-0.0034,0.0013,0.0013,0.0013,0.0013,0,0,0,0,0,0,0,-0.0231,-0.0228,-0.0198,-0.0174,-0.0166,-0.0142,-0.0134,-0.0142,-0.008,-0.0093,-0.0086,-0.008,-0.0028,-0.0022,-0.0019,-0.0033,0.0013,0.0013,0.0013,0.0013,-0.0088,-0.0091,0,0,0,0,0,0,-0.0242,-0.023,-0.02,-0.0196,-0.019,-0.0144,-0.0135,-0.0132,-0.008,-0.0069,-0.0082,-0.0075,-0.0024,-0.002,-0.0017,-0.0074,0.0013,0.0013,0.0013,-0.0086,-0.0089,-0.0092,0,0,0,0,0,0,-0.0244,-0.0241,-0.0202,-0.0211,-0.0204,-0.0146,-0.0144,-0.0132,-0.0126,-0.0071,-0.006,-0.0087,-0.0021,-0.0017,-0.0035,-0.0071,0.0013,0.0013,-0.0082,-0.0087,-0.009,-0.0191,0,0,0,0,0,0,-0.0245,-0.0242,-0.0261,-0.0212,-0.0204,-0.0222,-0.0146,-0.0133,-0.0126,-0.0116,-0.0073,-0.0063,-0.0019,-0.0036,-0.0035,-0.0069,0.0013,-0.0079,-0.0084,-0.0089,-0.0184,-0.0198,-0.021,0,0,0,0,0,-0.0247,-0.0292,-0.0262,-0.0259,-0.0227,-0.0224,-0.0219,-0.0167,-0.0129,-0.0148,-0.0113,-0.0064,-0.0067,-0.0038,-0.0037,-0.0072,-0.0076,-0.0083,-0.0089,-0.0178,-0.0195,-0.021,0,0,0,0,0,0,-0.0347,-0.0284,-0.0251,-0.0281,-0.0259,-0.0207,-0.0229,-0.0187,-0.0175,-0.0166,-0.0103,-0.0094,-0.012,-0.0097,-0.0066,-0.0119,-0.0064,-0.0071,-0.0133,-0.0149,-0.0161,-0.0166,0.0013,0,0,0,0,0,-0.0372,-0.0375,-0.032,-0.0353,-0.0343,-0.0288,-0.0285,-0.0247,-0.0221,-0.0211,-0.0177,-0.0154,-0.0149,-0.0148,-0.0141,-0.0181,-0.017,-0.0204,-0.0217,-0.0227,-0.0233,-0.0253,-0.0267,-0.0112,-0.0112,-0.0112,0,0,-0.0425,-0.0391,-0.0397,-0.0372,-0.0349,-0.0354,-0.0281,-0.0288,-0.0291,-0.0212,-0.0227,-0.0201,-0.0171,-0.0201,-0.0212,-0.0183,-0.0274,-0.0235,-0.0244,-0.0244,-0.0261,-0.0275,-0.0288,-0.0117,-0.0116,-0.0115,0,0,-0.0523,-0.0498,-0.0522,-0.0501,-0.0468,-0.0432,-0.0438,-0.0393,-0.0373,-0.0386,-0.0327,-0.033,-0.0323,-0.0304,-0.0294,-0.0386,-0.0341,-0.0385,-0.0452,-0.0472,-0.0484,-0.0495,-0.0527,-0.054,-0.0391,-0.0392,-0.0392,0,-0.0593,-0.0597,-0.054,-0.0551,-0.0542,-0.047,-0.0494,-0.0477,-0.0444,-0.0439,-0.0407,-0.0398,-0.0373,-0.0396,-0.0419,-0.0413,-0.0418,-0.039,-0.0487,-0.0497,-0.0506,-0.0536,-0.0548,-0.0397,-0.0397,-0.0396,-0.0396,0,-0.0684,-0.0688,-0.0711,-0.068,-0.0674,-0.0691,-0.0638,-0.0638,-0.0601,-0.0568,-0.0583,-0.055,-0.0535,-0.0538,-0.0502,-0.0557,-0.054,-0.0498,-0.0442,-0.0527,-0.0554,-0.0566,-0.0405,-0.0403,-0.0402,-0.04,0,0,-0.0843,-0.0781,-0.079,-0.0775,-0.0734,-0.0736,-0.0751,-0.0735,-0.0737,-0.0717,-0.0727,-0.0724,-0.0685,-0.0674,-0.0635,-0.0652,-0.0727,-0.0608,-0.0607,-0.0631,-0.0785,-0.0816,-0.0831,-0.0697,-0.0699,-0.07,-0.0787,0,-0.0932,-0.0953,-0.0903,-0.0936,-0.0939,-0.0871,-0.0884,-0.086,-0.083,-0.0828,-0.0795,-0.0793,-0.0743,-0.0735,-0.0749,-0.0715,-0.0757,-0.0708,-0.0706,-0.0707,-0.0716,-0.0845,-0.0878,-0.0962,-0.0798,-0.08,-0.0801,0,-0.1039,-0.1024,-0.1058,-0.1015,-0.1014,-0.1026,-0.1008,-0.1008,-0.098,-0.0956,-0.0944,-0.0898,-0.091,-0.0856,-0.0871,-0.0839,-0.0836,-0.0819,-0.0821,-0.0818,-0.0759,-0.0846,-0.0987,-0.1,-0.0817,-0.0816,-0.0815,0,-0.1152,-0.114,-0.1158,-0.1148,-0.1098,-0.1108,-0.1088,-0.1057,-0.1052,-0.1036,-0.1032,-0.1019,-0.1011,-0.1002,-0.0954,-0.092,-0.0976,-0.0918,-0.0957,-0.0958,-0.0971,-0.0971,-0.1114,-0.097,-0.097,-0.097,-0.0969,0,-0.1257,-0.128,-0.1208,-0.1219,-0.1244,-0.1186,-0.1211,-0.1184,-0.1158,-0.1163,-0.1104,-0.1111,-0.1047,-0.1047,-0.101,-0.1028,-0.1025,-0.1007,-0.0997,-0.1012,-0.1014,-0.1009,-0.1001,-0.0973,-0.0972,-0.0972,-0.0971,0,-0.1386,-0.1338,-0.1354,-0.1306,-0.1294,-0.1314,-0.1273,-0.1281,-0.1248,-0.1255,-0.1254,-0.1201,-0.1197,-0.1149,-0.1135,-0.111,-0.1143,-0.1122,-0.1153,-0.1146,-0.1188,-0.1184,-0.1331,-0.1348,-0.1194,-0.1196,-0.1197,0,-0.1456,-0.1472,-0.1425,-0.1424,-0.1407,-0.1406,-0.14,-0.1344,-0.134,-0.1309,-0.1322,-0.1314,-0.1304,-0.1301,-0.1262,-0.1251,-0.1229,-0.1282,-0.1227,-0.1242,-0.123,-0.1229,-0.1231,-0.1293,-0.1295,-0.1297,-0.1298,0,-0.1585,-0.156,-0.1553,-0.1539,-0.1533,-0.1518,-0.15,-0.1503,-0.1441,-0.144,-0.1435,-0.1428,-0.1414,-0.1406,-0.1388,-0.1368,-0.1323,-0.1315,-0.1324,-0.1339,-0.1356,-0.1348,-0.1184,-0.1312,-0.1311,-0.131,-0.1309,-0.1308,-0.1686,-0.1697,-0.1666,-0.166,-0.1641,-0.1625,-0.1631,-0.1598,-0.1593,-0.1577,-0.1544,-0.1545,-0.1517,-0.1488,-0.1471,-0.1471,-0.1444,-0.1457,-0.146,-0.1464,-0.1472,-0.1357,-0.1468,-0.1467,-0.1467,-0.1467,-0.1466,0,-0.1811,-0.1788,-0.1783,-0.176,-0.1756,-0.1714,-0.1692,-0.1691,-0.1692,-0.1669,-0.1661,-0.1656,-0.1648,-0.1609,-0.1597,-0.1605,-0.1584,-0.1603,-0.1602,-0.1598,-0.1497,-0.149,-0.162,-0.162,-0.162,-0.162,-0.162,-0.162,-0.1876,-0.1893,-0.1865,-0.1872,-0.1848,-0.1848,-0.1839,-0.1825,-0.1807,-0.1804,-0.1797,-0.1771,-0.1742,-0.1727,-0.1719,-0.1707,-0.1706,-0.1732,-0.1714,-0.162,-0.1605,-0.1591,-0.1585,-0.1732,-0.1733,-0.1815,-0.1816,-0.1817]},{"header":{"parameterUnit":"m.s-1","parameterCategory":1,"la1":30.2991,"la2":30.254,"lo1":-89.0895,"lo2":-89.0444,"dy":0.0017,"dx":0.0017,"nx":28,"ny":28,"refTime":"2023-08-15T03:00:00:Z","depth":0,"parameterNumber":3,"parameterNumberName":"V-component_of_WINDS"},"data":[0,0,0,0,0,0,0,0,0,0,0,0,0,0,0,0,0,0,0,0,0,0,0,0,0,0,0,0,0,0,0,0,0,0,0,0,0,0,0,0,0,0,0,0,0,0,0,0,0,0,0,0,0,0,0,0,0,0,0.9727,0.9726,0,0.9692,0.9691,0.9691,0.9693,0.9693,0.9694,0.9694,0.9657,0.9656,0.9654,0,0,0,0,0,0,0,0,0,0,0,0,0,0.9794,0.9793,0.9727,0.9726,0.9726,0.9692,0.9691,0.9691,0.9693,0.9693,0.9694,0.9694,0.9658,0.9656,0.9654,0,0,0,0,0,0,0,0,0,0,0,0,0,0.9762,0.9792,0.9727,0.9723,0.9722,0.9692,0.9691,0.9691,0.9692,0.9693,0.9694,0.9695,0.9658,0.9656,0.9654,0.9625,0,0,0.9647,0.9646,0,0,0,0,0,0,0,0,0.9764,0.976,0.9724,0.9723,0.9722,0.9697,0.9701,0.9669,0.9692,0.9704,0.9694,0.9695,0.967,0.9667,0.9658,0.9623,0.9622,0.9647,0.9646,0.9645,0.9644,0,0,0,0,0,0,0,0.9766,0.9761,0.9713,0.9723,0.9722,0.9722,0.9718,0.9695,0.9683,0.9703,0.9703,0.9699,0.9669,0.966,0.9658,0.9621,0.9647,0.9645,0.9644,0.9643,0.9559,0.9558,0,0,0,0,0,0,0.9769,0.9763,0.9714,0.9712,0.9745,0.972,0.9716,0.9705,0.9683,0.9681,0.9698,0.9699,0.9664,0.966,0.9656,0.962,0.9645,0.9643,0.9641,0.956,0.9559,0.9558,0,0,0,0,0,0,0.9771,0.9765,0.9715,0.9737,0.9731,0.9718,0.9705,0.9703,0.9694,0.968,0.9677,0.9691,0.9664,0.9659,0.9633,0.9619,0.9642,0.964,0.9561,0.956,0.9559,0.9548,0,0,0,0,0,0,0.9773,0.9766,0.9755,0.9737,0.973,0.9693,0.9704,0.9702,0.9691,0.9692,0.9673,0.967,0.9665,0.9636,0.963,0.9616,0.9638,0.9562,0.9561,0.9559,0.9549,0.9546,0.9543,0,0,0,0,0,0.9775,0.9753,0.9754,0.9748,0.9716,0.9692,0.9688,0.9682,0.969,0.9678,0.9669,0.9671,0.9621,0.9633,0.9627,0.9612,0.9563,0.9561,0.9559,0.955,0.9547,0.9543,0,0,0,0,0,0,0.977,0.9751,0.9752,0.9724,0.9709,0.9692,0.9678,0.9678,0.9661,0.9663,0.9656,0.9652,0.9625,0.9616,0.9629,0.9582,0.9593,0.959,0.9589,0.9585,0.9582,0.9584,0.9636,0,0,0,0,0,0.9765,0.9747,0.9732,0.9708,0.9701,0.9691,0.968,0.9677,0.9662,0.9655,0.9644,0.9629,0.9609,0.9597,0.9579,0.9548,0.9543,0.9535,0.9532,0.953,0.9526,0.9508,0.9503,0.9551,0.9551,0.9552,0,0,0.9756,0.9743,0.9732,0.9707,0.9695,0.9676,0.9686,0.9665,0.9651,0.9652,0.9626,0.9617,0.9599,0.957,0.9557,0.9562,0.9512,0.9527,0.9525,0.9523,0.9505,0.9501,0.9497,0.955,0.955,0.9551,0,0,0.9728,0.9718,0.9696,0.9684,0.9667,0.966,0.9655,0.9637,0.9631,0.9605,0.9605,0.9588,0.9556,0.9543,0.9532,0.9499,0.9499,0.9493,0.9477,0.946,0.9456,0.9452,0.9439,0.9434,0.949,0.949,0.949,0,0.9718,0.9689,0.9685,0.9664,0.9652,0.9653,0.9631,0.9619,0.9597,0.9588,0.9595,0.9553,0.9542,0.9509,0.9501,0.9493,0.9485,0.9494,0.9457,0.9453,0.945,0.9437,0.9432,0.9489,0.949,0.949,0.949,0,0.9677,0.9657,0.9642,0.962,0.9607,0.9585,0.9577,0.9564,0.9562,0.9554,0.9527,0.9513,0.9491,0.9483,0.9482,0.945,0.9453,0.9459,0.9469,0.9445,0.9432,0.9428,0.9488,0.9489,0.9489,0.9489,0,0,0.9644,0.962,0.9614,0.9603,0.9584,0.9568,0.9546,0.9525,0.9514,0.9498,0.9479,0.9451,0.9456,0.9443,0.944,0.9425,0.9397,0.9431,0.9431,0.9424,0.9359,0.9354,0.9349,0.9398,0.9397,0.9397,0.936,0,0.9613,0.9574,0.9569,0.9535,0.9515,0.9516,0.9497,0.9483,0.9475,0.9457,0.9449,0.9428,0.9437,0.9429,0.9414,0.9404,0.9384,0.9407,0.9379,0.9378,0.9381,0.9343,0.9337,0.9304,0.9356,0.9355,0.9354,0,0.9571,0.9554,0.9518,0.95,0.9492,0.9474,0.9454,0.9438,0.9421,0.9416,0.9402,0.9401,0.9377,0.9391,0.9357,0.9373,0.9361,0.9355,0.9353,0.9349,0.9363,0.9335,0.9293,0.9287,0.9347,0.9347,0.9348,0,0.9549,0.9517,0.949,0.9481,0.946,0.9448,0.9439,0.9423,0.941,0.9393,0.9384,0.9364,0.9353,0.9337,0.9329,0.934,0.9296,0.9309,0.929,0.929,0.9279,0.928,0.9233,0.9275,0.9275,0.9276,0.9276,0,0.9513,0.949,0.9479,0.9463,0.9437,0.9431,0.9406,0.9397,0.9383,0.9364,0.9364,0.9346,0.9339,0.9319,0.9314,0.9286,0.9282,0.9276,0.9274,0.9275,0.9275,0.9266,0.9267,0.9274,0.9275,0.9275,0.9275,0,0.9483,0.9475,0.9445,0.9428,0.9423,0.9404,0.9389,0.9373,0.9366,0.9342,0.9336,0.9324,0.9301,0.9293,0.9266,0.9262,0.9229,0.9231,0.9234,0.9234,0.9215,0.9216,0.9158,0.915,0.92,0.9199,0.9199,0,0.946,0.9442,0.9422,0.941,0.94,0.938,0.9367,0.9361,0.9347,0.9326,0.9312,0.929,0.9271,0.9235,0.9224,0.9202,0.9202,0.9183,0.9199,0.9199,0.9199,0.92,0.9197,0.918,0.9179,0.9179,0.9179,0,0.9419,0.9416,0.9397,0.9376,0.9361,0.9344,0.9328,0.9318,0.931,0.9294,0.9271,0.9257,0.9228,0.9206,0.9184,0.9174,0.9174,0.9174,0.9168,0.9167,0.917,0.9166,0.9224,0.9175,0.9175,0.9176,0.9176,0.9176,0.939,0.9374,0.9357,0.9336,0.9323,0.9308,0.9291,0.9282,0.9262,0.9239,0.9237,0.9211,0.9195,0.9165,0.9154,0.9134,0.9139,0.9131,0.9128,0.9126,0.9124,0.9175,0.913,0.913,0.913,0.913,0.913,0,0.9348,0.9337,0.9318,0.9295,0.9278,0.9281,0.9263,0.9248,0.9226,0.9211,0.9192,0.9165,0.9143,0.913,0.9107,0.9094,0.9093,0.9088,0.9087,0.9085,0.9121,0.9128,0.9088,0.9088,0.9088,0.9088,0.9088,0.9088,0.9323,0.9295,0.929,0.9255,0.9245,0.922,0.9209,0.9195,0.9182,0.9152,0.9133,0.9125,0.911,0.9087,0.9066,0.9063,0.9054,0.9047,0.9044,0.9078,0.9082,0.9086,0.9092,0.9046,0.9046,0.9009,0.9008,0.9008]}]]